Susqueda (La Selva)





Hora UTC 20:40
Temperatura 25.2 ºC
Humedad 74.0 %
Presión 1013.3 hPa
Pluja 0.0 mm
Velocidad viento 0.0 km/h
Dirección viento E

Datos diarios 2024-07-24



Hora UTC (invierno +1h; verano +2h)
Temperatura (ºC) Humedad (%) Presión (hPa) Velocidad viento (km/h) Precipitación (mm)
Hora UTC Aire Humedad Presión Vel. Dir. Vel. Max Dir. Intent. máx 5 min.
00:05 22.8 73.0 1017.4 0.0 WSW 0.0 0.0
00:10 22.9 73.0 1017.4 0.0 WSW 16.1 0.0
00:15 22.9 72.0 1017.3 12.9 W 14.5 0.0
00:20 22.8 73.0 1017.3 0.0 W 14.5 0.0
00:25 22.6 75.0 1017.1 0.0 W 12.9 0.0
00:30 22.4 75.0 1017.2 0.0 W 11.3 0.0
00:35 22.3 76.0 1017.2 0.0 W 8.0 0.0
00:40 22.3 76.0 1017.1 0.0 W 1.6 0.0
00:45 22.3 74.0 1017.1 0.0 WSW 1.6 0.0
00:50 22.4 74.0 1017.1 6.4 WSW 8.0 0.0
00:55 22.7 73.0 1017.2 0.0 WSW 8.0 0.0
01:00 22.7 73.0 1017.2 0.0 WSW 11.3 0.0
01:05 22.6 73.0 1017.1 14.5 WSW 16.1 0.0
01:10 22.3 74.0 1017.0 14.5 W 17.7 0.0
01:15 22.2 76.0 1017.1 0.0 SW 17.7 0.0
01:20 22.1 75.0 1017.1 4.8 W 17.7 0.0
01:25 22.1 75.0 1017.1 0.0 W 17.7 0.0
01:30 22.1 75.0 1017.1 0.0 WSW 12.9 0.0
01:35 22.1 75.0 1017.0 0.0 WSW 11.3 0.0
01:40 22.1 76.0 1017.0 0.0 W 16.1 0.0
01:45 22.1 76.0 1016.9 0.0 W 16.1 0.0
01:50 22.0 76.0 1017.0 1.6 WSW 14.5 0.0
01:55 22.2 75.0 1016.9 0.0 W 16.1 0.0
02:00 22.3 75.0 1016.8 0.0 W 16.1 0.0
02:05 22.3 75.0 1016.8 0.0 WSW 12.9 0.0
02:10 22.2 75.0 1016.7 1.6 WSW 12.9 0.0
02:15 22.1 76.0 1016.7 0.0 W 16.1 0.0
02:20 21.9 75.0 1016.7 0.0 WSW 16.1 0.0
02:25 21.8 76.0 1016.7 0.0 W 14.5 0.0
02:30 21.8 76.0 1016.6 0.0 W 14.5 0.0
02:35 21.7 76.0 1016.7 0.0 W 6.4 0.0
02:40 21.7 77.0 1016.7 0.0 W 11.3 0.0
02:45 21.6 77.0 1016.7 6.4 WSW 12.9 0.0
02:50 21.4 77.0 1016.6 0.0 WSW 12.9 0.0
02:55 21.4 77.0 1016.6 0.0 W 11.3 0.0
03:00 21.4 77.0 1016.6 0.0 WSW 6.4 0.0
03:05 21.4 77.0 1016.6 1.6 SW 12.9 0.0
03:10 21.4 77.0 1016.6 1.6 WSW 11.3 0.0
03:15 21.4 77.0 1016.6 0.0 WSW 11.3 0.0
03:20 21.4 77.0 1016.5 0.0 WSW 4.8 0.0
03:25 21.4 77.0 1016.6 0.0 SW 6.4 0.0
03:30 21.4 78.0 1016.6 0.0 SW 6.4 0.0
03:35 21.3 78.0 1016.6 0.0 SW 6.4 0.0
03:40 21.2 78.0 1016.6 0.0 SW 0.0 0.0
03:45 21.1 78.0 1016.6 0.0 SW 3.2 0.0
03:50 21.1 78.0 1016.6 0.0 SW 3.2 0.0
03:55 21.0 78.0 1016.6 0.0 W 0.0 0.0
04:00 21.1 78.0 1016.6 0.0 WSW 11.3 0.0
04:05 21.1 79.0 1016.7 0.0 WSW 9.7 0.0
04:10 21.1 78.0 1016.7 0.0 W 9.7 0.0
04:15 21.0 78.0 1016.7 0.0 W 1.6 0.0
04:20 21.0 78.0 1016.7 0.0 W 11.3 0.0
04:25 20.9 79.0 1016.7 0.0 W 11.3 0.0
04:30 20.9 79.0 1016.7 3.2 WSW 11.3 0.0
04:35 21.0 79.0 1016.8 11.3 W 11.3 0.0
04:40 20.9 79.0 1016.7 0.0 W 11.3 0.0
04:45 20.9 79.0 1016.8 0.0 W 1.6 0.0
04:50 20.7 80.0 1016.7 0.0 W 1.6 0.0
04:55 20.6 80.0 1016.7 11.3 W 11.3 0.0
05:00 20.5 81.0 1016.7 0.0 W 11.3 0.0
05:05 20.5 80.0 1016.7 1.6 W 11.3 0.0
05:10 20.5 80.0 1016.6 0.0 W 12.9 0.0
05:15 20.6 80.0 1016.6 0.0 W 12.9 0.0
05:20 20.6 80.0 1016.6 0.0 WSW 8.0 0.0
05:25 20.4 80.0 1016.6 0.0 W 8.0 0.0
05:30 20.5 80.0 1016.6 0.0 W 4.8 0.0
05:35 20.6 80.0 1016.7 0.0 W 12.9 0.0
05:40 20.6 80.0 1016.6 0.0 W 12.9 0.0
05:45 20.6 80.0 1016.7 0.0 SW 3.2 0.0
05:50 20.6 80.0 1016.6 0.0 W 6.4 0.0
05:55 20.6 80.0 1016.6 0.0 WSW 12.9 0.0
06:00 20.5 81.0 1016.6 0.0 WSW 14.5 0.0
06:05 20.4 81.0 1016.7 4.8 W 14.5 0.0
06:10 20.5 81.0 1016.6 12.9 W 14.5 0.0
06:15 20.6 80.0 1016.6 12.9 W 16.1 0.0
06:20 20.7 81.0 1016.6 12.9 W 16.1 0.0
06:25 20.7 81.0 1016.6 0.0 W 16.1 0.0
06:30 20.8 81.0 1016.7 0.0 WSW 14.5 0.0
06:35 20.9 81.0 1016.6 4.8 WSW 11.3 0.0
06:40 21.0 81.0 1016.6 0.0 WSW 11.3 0.0
06:45 21.1 81.0 1016.6 0.0 W 12.9 0.0
06:50 21.2 80.0 1016.6 0.0 WSW 12.9 0.0
06:55 21.3 81.0 1016.5 0.0 W 3.2 0.0
07:00 21.4 80.0 1016.5 0.0 WSW 12.9 0.0
07:05 21.6 79.0 1016.5 0.0 WSW 12.9 0.0
07:10 21.7 79.0 1016.5 0.0 W 11.3 0.0
07:15 21.8 79.0 1016.5 0.0 W 0.0 0.0
07:20 21.9 79.0 1016.5 0.0 W 0.0 0.0
07:25 22.0 79.0 1016.4 0.0 W 0.0 0.0
07:30 22.2 79.0 1016.4 0.0 W 0.0 0.0
07:35 22.3 78.0 1016.3 0.0 W 0.0 0.0
07:40 22.4 78.0 1016.3 0.0 W 9.7 0.0
07:45 22.6 78.0 1016.2 0.0 W 9.7 0.0
07:50 22.7 77.0 1016.2 0.0 WSW 0.0 0.0
07:55 22.9 77.0 1016.2 0.0 WSW 0.0 0.0
08:00 23.1 76.0 1016.2 0.0 WSW 0.0 0.0
08:05 23.3 76.0 1016.1 0.0 WSW 0.0 0.0
08:10 23.6 76.0 1016.1 0.0 WSW 0.0 0.0
08:15 24.3 74.0 1016.0 0.0 W 0.0 0.0
08:20 24.6 72.0 1015.9 0.0 W 11.3 0.0
08:25 25.2 67.0 1015.9 0.0 W 11.3 0.0
08:30 25.8 64.0 1015.8 0.0 WNW 1.6 0.0
08:35 26.3 62.0 1015.8 11.3 W 11.3 0.0
08:40 26.4 62.0 1015.7 0.0 W 11.3 0.0
08:45 27.0 59.0 1015.7 11.3 W 12.9 0.0
08:50 27.3 57.0 1015.6 4.8 WNW 11.3 0.0
08:55 27.4 58.0 1015.6 1.6 W 11.3 0.0
09:00 27.4 58.0 1015.5 4.8 W 9.7 0.0
09:05 27.9 54.0 1015.4 12.9 W 17.7 0.0
09:10 28.0 55.0 1015.4 0.0 W 17.7 0.0
09:15 28.2 55.0 1015.4 9.7 W 16.1 0.0
09:20 28.4 54.0 1015.3 11.3 W 16.1 0.0
09:25 28.5 54.0 1015.3 12.9 W 16.1 0.0
09:30 28.6 53.0 1015.3 6.4 W 16.1 0.0
09:35 28.7 51.0 1015.3 0.0 WSW 16.1 0.0
09:40 28.8 52.0 1015.2 0.0 SW 11.3 0.0
09:45 29.1 50.0 1015.2 0.0 WSW 11.3 0.0
09:50 29.3 50.0 1015.2 0.0 SW 12.9 0.0
09:55 29.4 50.0 1015.1 0.0 SW 12.9 0.0
10:00 29.6 49.0 1015.1 6.4 SW 9.7 0.0
10:05 29.7 48.0 1015.0 0.0 SW 9.7 0.0
10:10 29.7 49.0 1014.9 0.0 SW 6.4 0.0
10:15 29.7 48.0 1014.9 3.2 SW 6.4 0.0
10:20 29.9 47.0 1014.8 0.0 W 11.3 0.0
10:25 30.4 48.0 1014.8 0.0 WSW 11.3 0.0
10:30 31.7 46.0 1014.7 0.0 SE 3.2 0.0
10:35 32.3 50.0 1014.6 9.7 E 16.1 0.0
10:40 32.3 49.0 1014.6 8.0 E 16.1 0.0
10:45 32.7 49.0 1014.5 0.0 ESE 14.5 0.0
10:50 32.9 49.0 1014.4 0.0 E 12.9 0.0
10:55 32.8 49.0 1014.4 4.8 ENE 25.7 0.0
11:00 32.6 51.0 1014.3 6.4 SE 25.7 0.0
11:05 32.9 50.0 1014.2 1.6 ENE 12.9 0.0
11:10 32.9 50.0 1014.3 4.8 ENE 16.1 0.0
11:15 32.6 52.0 1014.2 8.0 NNE 16.1 0.0
11:20 32.2 51.0 1014.3 6.4 NNE 20.9 0.0
11:25 32.2 53.0 1014.4 3.2 NNW 20.9 0.0
11:30 32.1 52.0 1014.2 6.4 NNE 14.5 0.0
11:35 32.1 52.0 1014.3 1.6 ENE 14.5 0.0
11:40 32.0 53.0 1014.1 0.0 E 19.3 0.0
11:45 32.0 53.0 1014.2 3.2 WNW 19.3 0.0
11:50 32.2 52.0 1014.1 8.0 NE 12.9 0.0
11:55 32.4 53.0 1014.1 1.6 NE 12.9 0.0
12:00 32.3 52.0 1013.9 6.4 NNE 12.9 0.0
12:05 32.1 53.0 1014.0 0.0 NNE 12.9 0.0
12:10 32.3 53.0 1013.9 4.8 NE 8.0 0.0
12:15 32.1 54.0 1013.9 1.6 NE 12.9 0.0
12:20 31.8 53.0 1013.9 3.2 NE 12.9 0.0
12:25 31.8 55.0 1014.0 0.0 NNE 9.7 0.0
12:30 32.2 54.0 1013.9 1.6 ENE 9.7 0.0
12:35 32.7 54.0 1013.8 3.2 E 11.3 0.0
12:40 33.1 53.0 1013.7 6.4 ESE 16.1 0.0
12:45 33.3 52.0 1013.7 3.2 ENE 16.1 0.0
12:50 33.4 52.0 1013.7 0.0 E 9.7 0.0
12:55 33.4 52.0 1013.6 6.4 E 17.7 0.0
13:00 33.3 53.0 1013.5 0.0 NNE 17.7 0.0
13:05 33.3 52.0 1013.6 0.0 ENE 12.9 0.0
13:10 33.3 52.0 1013.4 1.6 ESE 16.1 0.0
13:15 33.3 52.0 1013.4 0.0 ESE 16.1 0.0
13:20 33.5 52.0 1013.4 4.8 E 12.9 0.0
13:25 33.3 52.0 1013.3 4.8 ENE 12.9 0.0
13:30 33.1 52.0 1013.3 4.8 ESE 16.1 0.0
13:35 33.2 52.0 1013.2 0.0 SE 14.5 0.0
13:40 33.4 50.0 1013.2 3.2 ENE 14.5 0.0
13:45 33.2 50.0 1013.2 0.0 E 14.5 0.0
13:50 32.7 53.0 1013.2 1.6 ESE 16.1 0.0
13:55 32.8 52.0 1013.2 3.2 SSE 16.1 0.0
14:00 33.1 51.0 1013.0 0.0 NNE 9.7 0.0
14:05 32.6 51.0 1013.1 4.8 NNE 11.3 0.0
14:10 31.9 54.0 1013.0 4.8 ESE 11.3 0.0
14:15 32.2 54.0 1013.0 0.0 ENE 11.3 0.0
14:20 32.4 52.0 1013.0 0.0 E 12.9 0.0
14:25 32.6 51.0 1012.9 0.0 E 9.7 0.0
14:30 32.8 52.0 1012.9 0.0 ESE 12.9 0.0
14:35 32.6 50.0 1012.8 4.8 NNE 12.9 0.0
14:40 32.3 51.0 1012.8 1.6 ESE 8.0 0.0
14:45 31.6 51.0 1012.9 4.8 NNE 12.9 0.0
14:50 31.0 52.0 1012.8 8.0 NE 22.5 0.0
14:55 30.6 54.0 1012.8 4.8 N 22.5 0.0
15:00 30.5 54.0 1012.8 6.4 NNE 16.1 0.0
15:05 30.3 54.0 1012.8 3.2 E 17.7 0.0
15:10 30.4 54.0 1012.8 4.8 NE 17.7 0.0
15:15 30.2 56.0 1012.8 1.6 NE 16.1 0.0
15:20 30.1 56.0 1012.8 4.8 NNE 20.9 0.0
15:25 29.9 56.0 1012.8 4.8 ENE 20.9 0.0
15:30 29.6 57.0 1012.8 1.6 E 12.9 0.0
15:35 29.5 58.0 1012.7 4.8 ENE 17.7 0.0
15:40 29.5 58.0 1012.8 1.6 ENE 17.7 0.0
15:45 29.4 58.0 1012.8 6.4 E 9.7 0.0
15:50 29.3 58.0 1012.7 11.3 ENE 14.5 0.0
15:55 29.2 59.0 1012.7 0.0 E 17.7 0.0
16:00 29.2 59.0 1012.5 0.0 NNE 17.7 0.0
16:05 29.1 60.0 1012.5 16.1 NE 16.1 0.0
16:10 29.1 62.0 1012.5 0.0 ENE 16.1 0.0
16:15 29.2 63.0 1012.5 0.0 ENE 22.5 0.0
16:20 29.2 62.0 1012.5 0.0 ENE 22.5 0.0
16:25 29.3 62.0 1012.5 0.0 NNE 14.5 0.0
16:30 29.3 62.0 1012.5 0.0 ENE 9.7 0.0
16:35 29.4 62.0 1012.5 1.6 WNW 9.7 0.0
16:40 29.7 62.0 1012.5 0.0 ENE 8.0 0.0
16:45 29.5 62.0 1012.4 1.6 NE 8.0 0.0
16:50 29.3 63.0 1012.4 4.8 NNE 12.9 0.0
16:55 29.2 63.0 1012.4 4.8 N 9.7 0.0
17:00 29.1 63.0 1012.4 4.8 NE 11.3 0.0
17:05 28.8 64.0 1012.4 1.6 E 14.5 0.0
17:10 29.0 63.0 1012.4 4.8 NNE 14.5 0.0
17:15 28.8 62.0 1012.4 4.8 NE 9.7 0.0
17:20 28.7 63.0 1012.4 0.0 NNE 12.9 0.0
17:25 28.7 62.0 1012.5 0.0 NNE 12.9 0.0
17:30 28.8 61.0 1012.5 4.8 NNE 11.3 0.0
17:35 28.8 61.0 1012.5 11.3 NNE 11.3 0.0
17:40 28.7 62.0 1012.5 1.6 ENE 12.9 0.0
17:45 28.6 63.0 1012.4 6.4 NE 12.9 0.0
17:50 28.4 63.0 1012.5 4.8 NNE 16.1 0.0
17:55 28.4 64.0 1012.4 0.0 ENE 9.7 0.0
18:00 28.2 65.0 1012.4 0.0 NW 9.7 0.0
18:05 28.2 65.0 1012.5 0.0 NE 12.9 0.0
18:10 28.1 65.0 1012.4 0.0 ENE 9.7 0.0
18:15 28.0 66.0 1012.4 9.7 NE 11.3 0.0
18:20 27.9 66.0 1012.4 0.0 ENE 11.3 0.0
18:25 27.8 67.0 1012.6 4.8 ENE 9.7 0.0
18:30 27.7 68.0 1012.7 0.0 ENE 12.9 0.0
18:35 27.6 68.0 1012.7 0.0 E 12.9 0.0
18:40 27.6 68.0 1012.7 0.0 E 9.7 0.0
18:45 27.5 69.0 1012.7 1.6 ENE 9.7 0.0
18:50 27.4 69.0 1012.7 0.0 ENE 11.3 0.0
18:55 27.3 70.0 1012.8 0.0 ENE 11.3 0.0
19:00 27.2 70.0 1012.8 6.4 NE 9.7 0.0
19:05 27.1 70.0 1012.8 1.6 E 11.3 0.0
19:10 27.1 71.0 1012.9 0.0 E 11.3 0.0
19:15 26.9 71.0 1012.8 0.0 E 6.4 0.0
19:20 26.7 71.0 1012.9 0.0 E 0.0 0.0
19:25 26.7 72.0 1012.9 0.0 E 0.0 0.0
19:30 26.6 72.0 1013.0 0.0 E 0.0 0.0
19:35 26.4 72.0 1013.0 0.0 E 6.4 0.0
19:40 26.3 72.0 1013.0 0.0 E 6.4 0.0
19:45 26.2 72.0 1013.0 0.0 E 6.4 0.0
19:50 26.1 73.0 1013.1 0.0 E 0.0 0.0
19:55 26.0 73.0 1013.1 0.0 E 0.0 0.0
20:00 25.9 73.0 1013.1 0.0 E 0.0 0.0
20:05 25.9 73.0 1013.2 0.0 E 0.0 0.0
20:10 25.8 73.0 1013.2 0.0 E 0.0 0.0
20:15 25.8 73.0 1013.3 0.0 E 0.0 0.0
20:20 25.7 73.0 1013.3 0.0 E 0.0 0.0
20:25 25.6 73.0 1013.3 0.0 E 0.0 0.0
20:30 25.4 73.0 1013.3 0.0 E 0.0 0.0
20:35 25.3 74.0 1013.3 0.0 E 0.0 0.0
20:40 25.2 74.0 1013.3 0.0 E 0.0 0.0
Máxima 33.5 81.0 1017.4 16.1 NE 25.7 0.0
Mínima 20 46.0 1012.4
Total 0.0